Weather History for Tacoma, WA

Change the Weather History Date:

Saturday, November 3, 2012

  Actual Average Record
Temperature  
Mean Temperature 56 °F -  
Max Temperature 60 °F 53 °F 70 °F (2010)
Min Temperature 51 °F 34 °F 19 °F (2002)
Degree Days  
Heating Degree Days 10    
Growing Degree Days 6 (Base 50)    
Moisture  
Dew Point 53 °F    
Average Humidity 94    
Maximum Humidity 100    
Minimum Humidity 77    
Precipitation  
Precipitation 0.02 in - - ()
Sea Level Pressure  
Sea Level Pressure 30.06 in    
Wind  
Wind Speed 4 mph (South)    
Max Wind Speed 18 mph    
Max Gust Speed 23 mph    
Visibility 9 miles    
Events Rain    
Averages and records for this station are not official NWS values.
T = Trace of Precipitation, MM = Missing Value Source: NWS Daily Summary

Daily Weather History Graph

Daily Weather History Graph

Search for Another Location

Airport:

Trip Planner

Search our weather history database for the weather conditions in past years. The results will help you decide how hot, cold, wet, or windy it might be!

Date:

Astronomy

Nov. 03, 2012 Rise Set
Actual Time 7:56 AM PDT 5:49 PM PDT
Civil Twilight 7:24 AM PDT 6:21 PM PDT
Nautical Twilight 6:48 AM PDT 6:57 PM PDT
Astronomical Twilight 6:12 AM PDT 7:33 PM PDT
Moon 9:29 PM PDT (11/3) 12:11 PM PDT (11/3)
Length of Visible Light 10h 57m
Length of Day
9h 52m
Waning Gibbous, 79% of the Moon is Illuminated
Nov 3
Waning Gibbous
Nov 6
Last Quarter
Nov 13
New
Nov 20
First Quarter
Nov 28
Full

Hourly Weather History & Observations

Time (PDT) Temp. Dew Point Humidity Pressure Visibility Wind Dir Wind Speed Gust Speed Precip Events Conditions
12:07 AM 53.6 °F 51.8 °F 94% 29.98 in 5.0 mi Calm Calm - N/A Rain Light Rain
12:09 AM 53.6 °F 51.8 °F 94% 29.98 in 5.0 mi Calm Calm - N/A   Overcast
12:13 AM 53.6 °F 51.8 °F 94% 29.98 in 5.0 mi North 2.3 mph - N/A Rain Light Rain
12:23 AM 51.8 °F 51.8 °F 100% 29.98 in 5.0 mi WNW 2.3 mph - N/A   Overcast
12:33 AM 53.6 °F 51.8 °F 94% 29.98 in 4.0 mi Calm Calm - N/A Rain Light Rain
12:54 AM 53.6 °F 51.8 °F 94% 29.97 in 8.0 mi WNW 3.5 mph - N/A   Overcast
12:58 AM 52.7 °F 52.5 °F 99% 29.99 in 8.0 mi NNW 4.6 mph - 0.00 in   Overcast
1:18 AM 51.8 °F 51.8 °F 100% 29.98 in 7.0 mi Calm Calm - N/A Rain Light Rain
1:32 AM 51.8 °F 51.8 °F 100% 29.98 in 8.0 mi Variable 1.2 mph - N/A   Overcast
1:42 AM 51.8 °F 51.8 °F 100% 29.98 in 8.0 mi SE 2.3 mph - N/A   Overcast
1:47 AM 51.8 °F 51.8 °F 100% 29.98 in 7.0 mi SE 2.3 mph - N/A   Overcast
1:58 AM 52.2 °F 52.0 °F 99% 29.99 in 5.0 mi SE 2.3 mph - 0.00 in   Overcast
2:19 AM 51.8 °F 51.8 °F 100% 29.98 in 5.0 mi ESE 2.3 mph - N/A   Overcast
2:39 AM 51.8 °F 51.8 °F 100% 29.98 in 6.0 mi Calm Calm - N/A   Overcast
2:44 AM 51.8 °F 51.8 °F 100% 29.98 in 6.0 mi SE 1.2 mph - N/A   Overcast
2:51 AM 51.8 °F 51.8 °F 100% 29.98 in 5.0 mi SE 3.5 mph - N/A Rain Light Rain
2:58 AM 52.5 °F 52.3 °F 99% 29.99 in 5.0 mi SE 2.3 mph - 0.00 in Rain Light Rain
3:06 AM 51.8 °F 51.8 °F 100% 29.98 in 6.0 mi SE 3.5 mph - N/A   Overcast
3:16 AM 51.8 °F 51.8 °F 100% 29.99 in 6.0 mi South 3.5 mph - N/A Rain Light Rain
3:21 AM 51.8 °F 51.8 °F 100% 29.99 in 6.0 mi South 3.5 mph - N/A   Light Drizzle
3:26 AM 51.8 °F 51.8 °F 100% 29.99 in 7.0 mi South 2.3 mph - N/A   Overcast
3:58 AM 52.5 °F 52.3 °F 99% 30.01 in 10.0 mi SE 4.6 mph - 0.00 in   Overcast
4:58 AM 52.7 °F 52.5 °F 99% 30.01 in 10.0 mi SE 2.3 mph - N/A   Overcast
5:58 AM 52.5 °F 52.3 °F 99% 30.03 in 10.0 mi SE 2.3 mph - N/A   Overcast
6:58 AM 52.5 °F 52.3 °F 99% 30.01 in 10.0 mi SSW 2.3 mph - N/A   Overcast
7:28 AM 51.8 °F 51.8 °F 100% 30.01 in 10.0 mi South 2.3 mph - N/A   Overcast
7:58 AM 52.2 °F 52.0 °F 99% 30.04 in 10.0 mi South 3.5 mph - 0.01 in   Overcast
8:58 AM 53.8 °F 53.4 °F 99% 30.04 in 10.0 mi South 8.1 mph - N/A   Overcast
9:38 AM 55.4 °F 53.6 °F 94% 30.03 in 10.0 mi South 9.2 mph - N/A   Overcast
9:43 AM 55.4 °F 53.6 °F 94% 30.04 in 10.0 mi SSW 8.1 mph - N/A   Overcast
9:53 AM 55.4 °F 53.6 °F 94% 30.04 in 10.0 mi South 8.1 mph - N/A   Overcast
9:58 AM 55.0 °F 53.6 °F 95% 30.05 in 10.0 mi South 6.9 mph - N/A   Overcast
10:08 AM 55.4 °F 53.6 °F 94% 30.04 in 10.0 mi South 5.8 mph - N/A   Overcast
10:58 AM 56.7 °F 54.7 °F 93% 30.06 in 10.0 mi SSW 5.8 mph - N/A   Overcast
11:58 AM 57.7 °F 55.4 °F 92% 30.06 in 10.0 mi South 6.9 mph - N/A   Overcast
12:58 PM 59.9 °F 55.2 °F 84% 30.07 in 10.0 mi South 13.8 mph 20.7 mph N/A   Overcast
1:58 PM 60.4 °F 54.3 °F 80% 30.07 in 10.0 mi South 13.8 mph - N/A   Overcast
2:58 PM 60.8 °F 53.6 °F 77% 30.08 in 10.0 mi South 13.8 mph - N/A   Mostly Cloudy
3:33 PM 60.8 °F 53.6 °F 77% 30.08 in 10.0 mi SSW 18.4 mph - N/A   Overcast
3:45 PM 59.0 °F 53.6 °F 82% 30.09 in 10.0 mi SSW 15.0 mph 23.0 mph N/A   Light Drizzle
3:54 PM 59.0 °F 53.6 °F 82% 30.09 in 10.0 mi SSW 12.7 mph - N/A   Overcast
3:58 PM 59.5 °F 54.0 °F 82% 30.10 in 10.0 mi SSW 12.7 mph - 0.00 in   Overcast
4:11 PM 59.0 °F 53.6 °F 82% 30.10 in 10.0 mi SSW 12.7 mph - N/A   Overcast
4:14 PM 59.0 °F 55.4 °F 88% 30.11 in 9.0 mi SSW 10.4 mph - N/A Rain Light Rain
4:22 PM 59.0 °F 55.4 °F 88% 30.11 in 10.0 mi South 11.5 mph - N/A   Overcast
4:42 PM 59.0 °F 55.4 °F 88% 30.12 in 10.0 mi South 9.2 mph - N/A   Overcast
4:58 PM 58.5 °F 55.0 °F 88% 30.13 in 10.0 mi SSW 10.4 mph - 0.00 in   Overcast
5:58 PM 58.1 °F 54.9 °F 89% 30.15 in 10.0 mi South 9.2 mph - N/A   Overcast
6:00 PM 57.2 °F 55.4 °F 94% 30.14 in 10.0 mi South 9.2 mph - N/A Rain Light Rain
6:16 PM 57.2 °F 55.4 °F 94% 30.14 in 10.0 mi South 9.2 mph - N/A   Overcast
6:42 PM 57.2 °F 55.4 °F 94% 30.16 in 10.0 mi SSW 8.1 mph - N/A Rain Light Rain
6:52 PM 57.2 °F 55.4 °F 94% 30.16 in 10.0 mi SW 8.1 mph - N/A   Mostly Cloudy
6:58 PM 57.2 °F 55.4 °F 94% 30.17 in 10.0 mi SW 6.9 mph - 0.00 in   Overcast
7:04 PM 57.2 °F 55.4 °F 94% 30.16 in 10.0 mi SSW 8.1 mph - N/A   Light Drizzle
7:43 PM 57.2 °F 55.4 °F 94% 30.16 in 10.0 mi SSW 5.8 mph - N/A   Overcast
7:58 PM 55.9 °F 55.2 °F 97% 30.17 in 10.0 mi South 6.9 mph - 0.01 in   Mostly Cloudy
8:58 PM 56.1 °F 55.4 °F 97% 30.17 in 10.0 mi SSW 4.6 mph - N/A   Overcast
9:58 PM 54.7 °F 54.3 °F 99% 30.17 in 10.0 mi SSE 3.5 mph - N/A   Overcast
10:58 PM 54.7 °F 54.5 °F 99% 30.18 in 10.0 mi ESE 2.3 mph - N/A   Overcast
11:58 PM 54.3 °F 54.0 °F 99% 30.20 in 10.0 mi ESE 2.3 mph - N/A   Overcast